Weather in Kyshtovka

Russia / Novosibirsk Oblast     56°33′44″N   76°37′21″E
temp.,
°C
wind,
m/s
gust,
m/s
humid.,
%
clouds,
%
prec.,
mm/h
press.,
hPa
HPBL,
m
24 october, sun
sun2401:00+8sw81683100 0.1 1008702
04:00+8wsw9168327 0.2 1008748
07:00+7wsw8158543 0.2 1010651
10:00+6wsw713845 0.0 1012723
13:00+8wsw712745 0.0 10131084
16:00+10wsw61170100 0.0 10141172
19:00+8sw41080100 0.0 1016293
22:00+8ssw41083100 0.0 1015278
25 october, mon
mon2501:00+7s51089100 0.1 1013284
04:00+9ssw81683100 0.1 1009678
07:00+8sw81571100 0.1 1007776
10:00+8sw91657100 0.0 1007959
13:00+7w8137548 0.0 10101016
16:00+7w61265100 0.0 10131214
19:00+5w3775100 0.0 1015188
22:00+4sw2279100 0.0 101620
26 october, tue
tue2601:00+4s3578100 0.0 1015106
04:00+4s41075100 0.0 1013320
07:00+4sse51193100 1.1 1009796
10:00+5s61396100 2.9 1004608
13:00+7ssw81391100 6.2 10011139
16:00+4wnw71097100 3.5 1001673
19:00+2wnw71295100 4.1 1004915
22:000wnw712745 0.1 1009967
27 october, wed
wed2701:00−2wnw7127770 0.1 1013895
04:00−2w6117557 0.0 1016924
07:00−2w6107665 0.0 1018864
10:00−2wsw611756 0.0 1020917
13:000w71060100 0.1 10201549
16:00+1w695217 0.1 10211638
19:00−1w38645 0.1 1023267
22:00−2wsw37715 0.0 1024218
28 october, thu
thu2801:00−2sw358516 0.0 1025143
04:00−2ssw358468 0.0 1025127
07:00−2s378415 0.0 1025184
10:00−1s4970100 0.0 1024324
13:00+1ssw61260100 0.0 1023585
16:00+2ssw71354100 0.0 1020689
19:00+2ssw71554100 0.0 1019603
22:00+1ssw81658100 0.0 1017570